Point Pleasant, WV

2:03 PM EDT on June 25, 2017 (GMT -0400)
Point Pleasant

Weather History for K3I2 - November, 2013

Change the Weather History Date:

Thursday, November 7, 2013

  Actual Average (KHTS) Record (KHTS)
Temperature  
Mean Temperature 46 °F -  
Max Temperature 60 °F 56 °F 86 °F (1938)
Min Temperature 32 °F 38 °F 15 °F (1953)
Degree Days  
Heating Degree Days 19    
Moisture  
Dew Point 39 °F    
Average Humidity 77    
Maximum Humidity 100    
Minimum Humidity 43    
Precipitation  
Precipitation 0.00 in - - ()
Sea Level Pressure  
Sea Level Pressure 30.15 in    
Wind  
Wind Speed 6 mph (WNW)    
Max Wind Speed 14 mph    
Max Gust Speed 18 mph    
Visibility 9 miles    
Events Rain    
Averages and records for this station are not official NWS values.
T = Trace of Precipitation, MM = Missing Value Source: NWS Daily Summary

Daily Weather History Graph

Daily Weather History Graph

Search for Another Location

Airport or City:

Trip Planner

Search our weather history database for the weather conditions in past years. The results will help you decide how hot, cold, wet, or windy it might be!

Date:

Astronomy

Nov. 07, 2013 Rise Set
Actual Time 7:02 AM EST 5:21 PM EST
Civil Twilight 6:34 AM EST 5:49 PM EST
Nautical Twilight 6:02 AM EST 6:21 PM EST
Astronomical Twilight 5:31 AM EST 6:52 PM EST
Moon 11:09 AM EST (11/7) 9:31 PM EST (11/7)
Length of Visible Light 11h 14m
Length of Day
10h 18m
Waxing Crescent, 22% of the Moon is Illuminated
Nov 7
Waxing Crescent
Nov 10
First Quarter
Nov 17
Full
Nov 25
Last Quarter
Dec 2
New

Hourly Weather History & Observations

Time (EST) Temp. Windchill Dew Point Humidity Pressure Visibility Wind Dir Wind Speed Gust Speed Precip Events Conditions
12:15 AM 60.8 °F - 60.8 °F 100% 29.99 in 2.0 mi SW 13.8 mph - N/A Rain Rain
12:35 AM 60.8 °F - 60.8 °F 100% 29.99 in 2.5 mi SW 9.2 mph 18.4 mph N/A Rain Rain
12:55 AM 60.8 °F - 60.8 °F 100% 29.98 in 4.0 mi SW 9.2 mph - N/A Rain Light Rain
1:15 AM 60.8 °F - 59.0 °F 94% 29.97 in 4.0 mi SW 8.1 mph - N/A Rain Light Rain
1:35 AM 60.8 °F - 59.0 °F 94% 29.97 in 5.0 mi SW 5.8 mph - N/A Rain Light Rain
1:55 AM 60.8 °F - 59.0 °F 94% 29.96 in 4.0 mi SSW 6.9 mph - N/A Rain Light Rain
2:15 AM 60.8 °F - 59.0 °F 94% 29.97 in 5.0 mi WNW 6.9 mph - N/A Rain Light Rain
2:35 AM 59.0 °F - 55.4 °F 88% 29.97 in 3.0 mi WNW 4.6 mph - N/A Rain Light Rain
2:55 AM 57.2 °F - 55.4 °F 94% 30.00 in 7.0 mi WNW 10.4 mph - N/A Rain Light Rain
3:15 AM 53.6 °F - 51.8 °F 94% 30.01 in 7.0 mi WNW 8.1 mph - N/A Rain Light Rain
3:35 AM 51.8 °F - 50.0 °F 94% 30.01 in 5.0 mi NNW 4.6 mph - N/A Rain Rain
3:55 AM 51.8 °F - 50.0 °F 94% 30.02 in 7.0 mi WNW 4.6 mph - N/A Rain Light Rain
4:15 AM 51.8 °F - 48.2 °F 88% 30.03 in 7.0 mi NW 5.8 mph - N/A Rain Light Rain
4:35 AM 50.0 °F - 48.2 °F 94% 30.05 in 10.0 mi WNW 5.8 mph - N/A Rain Light Rain
4:55 AM 50.0 °F - 46.4 °F 87% 30.05 in 7.0 mi WNW 4.6 mph - N/A Rain Rain
5:15 AM 50.0 °F - 46.4 °F 87% 30.04 in 7.0 mi NW 3.5 mph - N/A Rain Light Rain
5:35 AM 48.2 °F - 46.4 °F 93% 30.06 in 7.0 mi West 5.8 mph - N/A Rain Light Rain
5:55 AM 46.4 °F 42.4 °F 44.6 °F 93% 30.07 in 7.0 mi WNW 8.1 mph - N/A Rain Light Rain
6:15 AM 46.4 °F 45.2 °F 44.6 °F 93% 30.08 in 10.0 mi NW 3.5 mph - N/A Rain Light Rain
6:35 AM 46.4 °F 45.2 °F 44.6 °F 93% 30.09 in 10.0 mi WNW 3.5 mph - N/A   Overcast
6:55 AM 46.4 °F 42.9 °F 44.6 °F 93% 30.10 in 10.0 mi NW 6.9 mph - N/A   Overcast
7:15 AM 46.4 °F 44.3 °F 42.8 °F 87% 30.11 in 10.0 mi West 4.6 mph - N/A   Overcast
7:35 AM 46.4 °F 44.3 °F 42.8 °F 87% 30.12 in 10.0 mi WNW 4.6 mph - N/A   Overcast
7:55 AM 46.4 °F 44.3 °F 42.8 °F 87% 30.14 in 10.0 mi WNW 4.6 mph - N/A   Overcast
8:15 AM 46.4 °F 44.3 °F 42.8 °F 87% 30.16 in 10.0 mi NW 4.6 mph - N/A   Overcast
8:35 AM 46.4 °F 44.3 °F 42.8 °F 87% 30.17 in 10.0 mi West 4.6 mph - N/A   Overcast
8:55 AM 46.4 °F 45.2 °F 42.8 °F 87% 30.18 in 10.0 mi WNW 3.5 mph - N/A   Overcast
9:15 AM 46.4 °F 45.2 °F 41.0 °F 81% 30.19 in 10.0 mi WNW 3.5 mph - N/A   Overcast
9:35 AM 46.4 °F 44.3 °F 41.0 °F 81% 30.19 in 10.0 mi West 4.6 mph - N/A   Overcast
9:55 AM 46.4 °F 42.9 °F 41.0 °F 81% 30.20 in 10.0 mi WNW 6.9 mph - N/A   Overcast
10:15 AM 46.4 °F 42.9 °F 41.0 °F 81% 30.20 in 10.0 mi WNW 6.9 mph - N/A   Overcast
10:35 AM 48.2 °F - 37.4 °F 66% 30.21 in 10.0 mi WNW 6.9 mph - N/A   Overcast
10:55 AM 50.0 °F - 35.6 °F 58% 30.21 in 10.0 mi NW 5.8 mph - N/A   Mostly Cloudy
11:15 AM 50.0 °F - 35.6 °F 58% 30.21 in 10.0 mi NW 9.2 mph - N/A   Overcast
11:35 AM 50.0 °F - 37.4 °F 62% 30.21 in 10.0 mi WNW 8.1 mph - N/A   Overcast
11:55 AM 51.8 °F - 37.4 °F 58% 30.20 in 10.0 mi West 6.9 mph - N/A   Overcast
12:15 PM 50.0 °F - 35.6 °F 58% 30.20 in 10.0 mi West 8.1 mph - N/A   Overcast
12:35 PM 51.8 °F - 35.6 °F 54% 30.19 in 10.0 mi West 6.9 mph - N/A   Mostly Cloudy
12:55 PM 50.0 °F - 33.8 °F 54% 30.19 in 10.0 mi WNW 6.9 mph 16.1 mph N/A   Mostly Cloudy
1:15 PM 51.8 °F - 33.8 °F 50% 30.18 in 10.0 mi WNW 10.4 mph 17.3 mph N/A   Mostly Cloudy
1:35 PM 50.0 °F - 32.0 °F 50% 30.18 in 10.0 mi WNW 8.1 mph - N/A   Mostly Cloudy
1:55 PM 50.0 °F - 32.0 °F 50% 30.18 in 10.0 mi West 8.1 mph - N/A   Scattered Clouds
2:15 PM 51.8 °F - 32.0 °F 47% 30.18 in 10.0 mi WNW 8.1 mph - N/A   Scattered Clouds
2:35 PM 53.6 °F - 32.0 °F 44% 30.17 in 10.0 mi North 5.8 mph - N/A   Scattered Clouds
2:55 PM 50.0 °F - 32.0 °F 50% 30.18 in 10.0 mi WNW 6.9 mph - N/A   Mostly Cloudy
3:15 PM 51.8 °F - 30.2 °F 44% 30.18 in 10.0 mi West 8.1 mph - N/A   Scattered Clouds
3:35 PM 51.8 °F - 30.2 °F 44% 30.18 in 10.0 mi WNW 6.9 mph - N/A   Scattered Clouds
3:55 PM 50.0 °F - 28.4 °F 43% 30.19 in 10.0 mi WNW 6.9 mph - N/A   Scattered Clouds
4:15 PM 48.2 °F - 28.4 °F 46% 30.19 in 10.0 mi WNW 4.6 mph - N/A   Scattered Clouds
4:35 PM 46.4 °F 45.2 °F 28.4 °F 50% 30.20 in 10.0 mi WNW 3.5 mph - N/A   Clear
4:55 PM 46.4 °F 45.2 °F 28.4 °F 50% 30.21 in 10.0 mi NW 3.5 mph - N/A   Mostly Cloudy
5:35 PM 44.6 °F - 26.6 °F 49% 30.22 in 10.0 mi Calm Calm - N/A   Scattered Clouds
5:55 PM 44.6 °F 43.1 °F 28.4 °F 53% 30.22 in 10.0 mi WNW 3.5 mph - N/A   Clear
6:15 PM 42.8 °F - 28.4 °F 57% 30.23 in 10.0 mi Calm Calm - N/A   Clear
6:35 PM 41.0 °F - 30.2 °F 65% 30.23 in 10.0 mi Calm Calm - N/A   Clear
6:55 PM 37.4 °F - 32.0 °F 81% 30.23 in 10.0 mi Calm Calm - N/A   Clear
7:15 PM 37.4 °F - 32.0 °F 81% 30.23 in 10.0 mi Calm Calm - N/A   Clear
7:35 PM 35.6 °F - 30.2 °F 81% 30.23 in 10.0 mi Calm Calm - N/A   Clear
7:55 PM 35.6 °F - 30.2 °F 81% 30.23 in 10.0 mi Calm Calm - N/A   Clear
8:15 PM 35.6 °F - 30.2 °F 81% 30.23 in 10.0 mi Calm Calm - N/A   Clear
8:35 PM 33.8 °F - 30.2 °F 87% 30.23 in 10.0 mi Calm Calm - N/A   Clear
8:55 PM 33.8 °F - 30.2 °F 87% 30.23 in 10.0 mi Calm Calm - N/A   Clear
9:15 PM 33.8 °F - 32.0 °F 93% 30.23 in 10.0 mi Calm Calm - N/A   Clear
9:35 PM 32.0 °F - 30.2 °F 93% 30.24 in 10.0 mi Calm Calm - N/A   Clear
9:55 PM 32.0 °F - 30.2 °F 93% 30.24 in 10.0 mi Calm Calm - N/A   Clear
10:15 PM 32.0 °F - 30.2 °F 93% 30.24 in 10.0 mi Calm Calm - N/A   Scattered Clouds
10:35 PM 32.0 °F - 30.2 °F 93% 30.24 in 10.0 mi Calm Calm - N/A   Scattered Clouds
10:55 PM 32.0 °F - 30.2 °F 93% 30.23 in 10.0 mi Calm Calm - N/A   Scattered Clouds
11:15 PM 32.0 °F - 32.0 °F 100% 30.23 in 10.0 mi Calm Calm - N/A   Clear
11:35 PM 32.0 °F - 30.2 °F 93% 30.23 in 10.0 mi Calm Calm - N/A   Scattered Clouds
11:55 PM 32.0 °F - 30.2 °F 93% 30.23 in 10.0 mi Calm Calm - N/A   Mostly Cloudy